[[{"header":{"parameterUnit":"m.s-1","parameterCategory":2,"la1":30.2992,"la2":30.254,"lo1":-89.0895,"lo2":-89.0443,"dy":0.0025,"dx":0.0025,"nx":19,"ny":19,"refTime":"2026-03-08T21:00:00:Z","depth":"0","parameterNumber":2,"parameterNumberName":"U-component_of_CURRENTS"},"data":[0,0,0,0.313,0.3131,0.3182,0.3182,0.3274,0.3275,0,0,0,0,0,0,0,0,0,0,0,0.3107,0.3107,0.313,0.3131,0.3182,0.3182,0.3274,0.3275,0,0,0,0,0,0,0,0,0,0,0,0.3107,0.3107,0.3107,0.3131,0.3182,0.3182,0.3273,0.3229,0,0,0,0,0,0,0,0,0,0,0.3176,0.3154,0.3107,0.3107,0.3131,0.3182,0.3182,0.3226,0.3231,0.3258,0,0.3262,0,0.3274,0.3281,0.3282,0,0,0,0.3132,0.315,0.3161,0.3107,0.3132,0.3182,0.3159,0.3229,0.3235,0.3265,0.3263,0.3267,0.3275,0.3282,0.3282,0.3429,0.3429,0,0,0.3129,0.3122,0.3157,0.3164,0.3141,0.3158,0.3161,0.3232,0.3239,0.3263,0.3269,0.3277,0.3283,0.3283,0.3428,0.3429,0,0,0,0.312,0.312,0.3129,0.3161,0.317,0.3159,0.3163,0.3236,0.3238,0.327,0.3278,0.3283,0.3284,0.3427,0.3428,0.3473,0,0,0,0.3119,0.3115,0.3127,0.3124,0.3168,0.3201,0.3165,0.3232,0.3241,0.3277,0.3283,0.3285,0.3426,0.3428,0.3469,0.3475,0,0,0,0.3105,0.3114,0.3117,0.3123,0.3145,0.32,0.3206,0.3234,0.3246,0.3282,0.3286,0.3425,0.3427,0.3466,0.3471,0.3485,0,0,0,0.31,0.3102,0.3117,0.3138,0.3145,0.321,0.3206,0.3254,0.3286,0.3284,0.3426,0.3428,0.3466,0.3468,0.3483,0.3382,0.3385,0,0,0.3098,0.3102,0.3118,0.3132,0.3185,0.3203,0.3288,0.3319,0.3329,0.3402,0.3405,0.347,0.347,0.3485,0.35,0.3498,0,0,0,0.3116,0.3117,0.314,0.3175,0.323,0.3295,0.3336,0.3375,0.3443,0.3357,0.35,0.3498,0.3505,0.3441,0.3441,0.3383,0.3437,0.3437,0.3437,0.3077,0.3119,0.3148,0.3206,0.3263,0.3369,0.3432,0.3495,0.3499,0.3546,0.3557,0.3627,0.3562,0.356,0.3504,0.359,0.359,0.359,0.359,0.3059,0.3065,0.3143,0.3178,0.3279,0.3358,0.352,0.356,0.3657,0.3644,0.3648,0.3519,0.3562,0.3502,0.3594,0.3593,0.3593,0.3592,0.3592,0.3006,0.3013,0.3046,0.3119,0.3215,0.3352,0.3461,0.3601,0.3676,0.3711,0.3615,0.3613,0.3536,0.3704,0.3704,0.3704,0.3704,0.3705,0.3705,0.2925,0.2963,0.2971,0.3063,0.3099,0.3232,0.3435,0.3505,0.3605,0.3652,0.365,0.3556,0.3661,0.363,0.3707,0.3706,0.3706,0.3706,0.3706,0.283,0.2864,0.2864,0.2888,0.2987,0.3014,0.324,0.337,0.3475,0.35,0.3507,0.3618,0.3585,0.3584,0.3551,0.3602,0.3603,0.3602,0.3602,0.276,0.2783,0.2747,0.2748,0.2802,0.2908,0.2881,0.3038,0.3266,0.333,0.3436,0.3386,0.3393,0.3347,0.3351,0.3313,0.3303,0.3303,0.3303,0.2696,0.2701,0.2627,0.2644,0.2688,0.2721,0.2627,0.2666,0.3027,0.329,0.3382,0.3394,0.3322,0.3337,0.3265,0.3275,0.3213,0,0]},{"header":{"parameterUnit":"m.s-1","parameterCategory":2,"la1":30.2992,"la2":30.254,"lo1":-89.0895,"lo2":-89.0443,"dy":0.0025,"dx":0.0025,"nx":19,"ny":19,"refTime":"2026-03-08T21:00:00:Z","depth":"0","parameterNumber":3,"parameterNumberName":"V-component_of_CURRENTS"},"data":[0,0,0,0.0208,0.0208,0.0181,0.0181,0.0096,0.0095,0,0,0,0,0,0,0,0,0,0,0,0.0213,0.0213,0.0208,0.0208,0.0181,0.0181,0.0096,0.0095,0,0,0,0,0,0,0,0,0,0,0,0.0213,0.0213,0.0213,0.0208,0.0181,0.0181,0.0096,0.0126,0,0,0,0,0,0,0,0,0,0,0.0157,0.0172,0.0213,0.0213,0.0208,0.0181,0.0181,0.0128,0.0124,0.0098,0,0.01,0,0.0102,0.009,0.0089,0,0,0,0.0195,0.0175,0.0173,0.0213,0.0208,0.0181,0.019,0.0126,0.0122,0.0092,0.0099,0.0097,0.0101,0.0089,0.0089,0.0046,0.0046,0,0,0.0196,0.02,0.0176,0.017,0.0209,0.0191,0.0189,0.0124,0.0118,0.0099,0.0095,0.0099,0.0088,0.0088,0.0046,0.0046,0,0,0,0.0209,0.0201,0.0201,0.0173,0.0176,0.019,0.0188,0.0121,0.0123,0.0094,0.0098,0.0088,0.0087,0.0046,0.0046,0.0166,0,0,0,0.021,0.0209,0.0201,0.0202,0.0178,0.0155,0.0187,0.0127,0.012,0.0099,0.0088,0.0086,0.0046,0.0046,0.0162,0.0232,0,0,0,0.0213,0.0209,0.021,0.0202,0.0198,0.0157,0.0154,0.0126,0.0123,0.0089,0.0086,0.0046,0.0046,0.0159,0.0225,0.0308,0,0,0,0.0211,0.0236,0.021,0.0236,0.0198,0.0209,0.0155,0.0144,0.0121,0.0088,0.0046,0.0046,0.0158,0.0221,0.0303,0.0417,0.0448,0,0,0.0248,0.024,0.0257,0.0235,0.0274,0.0211,0.0239,0.0181,0.0115,0.006,0.006,0.0163,0.0225,0.0307,0.0439,0.047,0,0,0,0.0273,0.0293,0.0297,0.031,0.0297,0.0306,0.0241,0.0214,0.0171,0.0105,0.0138,0.0172,0.0221,0.0278,0.0302,0.022,0.0048,0.0048,0.0048,0.0335,0.0338,0.0382,0.0388,0.0385,0.0363,0.0365,0.031,0.0226,0.0221,0.0251,0.0369,0.0429,0.0449,0.0362,0.0218,0.0218,0.0218,0.0219,0.0419,0.0455,0.0454,0.0496,0.0493,0.0504,0.0478,0.044,0.0434,0.0333,0.0375,0.0377,0.0483,0.038,0.0226,0.0225,0.0224,0.0223,0.0222,0.0471,0.0495,0.0511,0.0574,0.0627,0.0617,0.0705,0.0649,0.056,0.0592,0.0635,0.0634,0.0563,0.0606,0.0607,0.0607,0.0608,0.0608,0.0609,0.0519,0.0543,0.0606,0.0668,0.0726,0.0816,0.084,0.0862,0.0853,0.0787,0.0787,0.0598,0.0487,0.0494,0.0619,0.0617,0.0616,0.0615,0.0614,0.0602,0.0598,0.0707,0.0771,0.0927,0.1095,0.1102,0.1193,0.1166,0.1199,0.0915,0.0888,0.0867,0.0846,0.0861,0.1073,0.1073,0.1074,0.1074,0.065,0.0658,0.0804,0.0932,0.1101,0.1227,0.1457,0.1495,0.1316,0.1189,0.1054,0.0968,0.0953,0.0928,0.0906,0.0916,0.1138,0.1138,0.1137,0.0713,0.0748,0.0866,0.0983,0.1178,0.139,0.164,0.1763,0.1429,0.1123,0.0921,0.0918,0.0765,0.0748,0.0679,0.0654,0.0659,0,0]}],[{"header":{"parameterUnit":"m.s-1","parameterCategory":2,"la1":30.2992,"la2":30.254,"lo1":-89.0895,"lo2":-89.0443,"dy":0.0025,"dx":0.0025,"nx":19,"ny":19,"refTime":"2026-03-08T21:00:00:Z","depth":"2","parameterNumber":2,"parameterNumberName":"U-component_of_CURRENTS"},"data":[0,0,0,0.23,0.2302,0.2374,0.2374,0.2455,0.2456,0,0,0,0,0,0,0,0,0,0,0,0.2277,0.2278,0.23,0.2302,0.2374,0.2374,0.2455,0.2456,0,0,0,0,0,0,0,0,0,0,0,0.2277,0.2278,0.2279,0.2302,0.2374,0.2374,0.2455,0.24,0,0,0,0,0,0,0,0,0,0,0.233,0.2304,0.2277,0.2279,0.2303,0.2374,0.2374,0.2397,0.2403,0.2424,0,0.245,0,0.2461,0.2462,0.2463,0,0,0,0.2289,0.2299,0.2333,0.2279,0.2304,0.2374,0.2338,0.2401,0.2408,0.2432,0.2451,0.2454,0.2462,0.2463,0.2464,0.2565,0.2565,0,0,0.2285,0.2273,0.2328,0.2338,0.2343,0.2336,0.234,0.2405,0.2412,0.2451,0.2456,0.2464,0.2464,0.2464,0.2565,0.2565,0,0,0,0.2282,0.227,0.2302,0.2334,0.2352,0.2338,0.2343,0.2408,0.2424,0.2457,0.2465,0.2464,0.2465,0.2564,0.2565,0.2627,0,0,0,0.2279,0.227,0.2301,0.2291,0.2352,0.238,0.2345,0.2419,0.2427,0.2464,0.2464,0.2466,0.2564,0.2565,0.2625,0.2647,0,0,0,0.227,0.2268,0.2286,0.2291,0.233,0.238,0.2398,0.2421,0.2433,0.2463,0.2467,0.2564,0.2564,0.2622,0.2643,0.2677,0,0,0,0.2241,0.2267,0.2286,0.2318,0.233,0.239,0.2397,0.244,0.2468,0.2465,0.2564,0.2565,0.2621,0.2641,0.2674,0.2604,0.261,0,0,0.2254,0.2268,0.2287,0.2306,0.2356,0.2378,0.243,0.2469,0.2487,0.2538,0.2541,0.2625,0.2643,0.2676,0.2658,0.2663,0,0,0,0.2277,0.229,0.2309,0.2346,0.2394,0.2448,0.2477,0.2521,0.259,0.2512,0.2627,0.2636,0.2655,0.2607,0.2611,0.2569,0.2569,0.2569,0.2569,0.2263,0.2295,0.232,0.2367,0.2415,0.2497,0.2552,0.2615,0.2619,0.2673,0.2688,0.2757,0.2708,0.271,0.2692,0.2692,0.2692,0.2692,0.2693,0.2264,0.2267,0.2322,0.2355,0.2435,0.2496,0.2636,0.2679,0.2777,0.2767,0.2783,0.2677,0.2717,0.2698,0.2697,0.2696,0.2695,0.2695,0.2695,0.2226,0.223,0.2261,0.2319,0.2409,0.2512,0.2619,0.2737,0.2826,0.2864,0.2796,0.2794,0.2791,0.287,0.287,0.287,0.287,0.2871,0.2871,0.2166,0.2197,0.221,0.2288,0.2326,0.2446,0.2633,0.2705,0.2811,0.2855,0.2854,0.2817,0.2811,0.2801,0.2875,0.2874,0.2874,0.2873,0.2873,0.2104,0.2125,0.214,0.2165,0.226,0.2297,0.2491,0.2632,0.2741,0.2778,0.2847,0.2846,0.2817,0.2812,0.2801,0.2871,0.2871,0.2871,0.2871,0.2048,0.2066,0.206,0.2077,0.2126,0.2222,0.2236,0.2361,0.2571,0.2636,0.2646,0.2575,0.2581,0.2533,0.2535,0.2516,0.2512,0.2511,0.251,0.2002,0.2013,0.1978,0.2006,0.2045,0.209,0.2042,0.202,0.221,0.2491,0.253,0.2857,0.2778,0.2778,0.2722,0.2717,0.2695,0,0]},{"header":{"parameterUnit":"m.s-1","parameterCategory":2,"la1":30.2992,"la2":30.254,"lo1":-89.0895,"lo2":-89.0443,"dy":0.0025,"dx":0.0025,"nx":19,"ny":19,"refTime":"2026-03-08T21:00:00:Z","depth":"2","parameterNumber":3,"parameterNumberName":"V-component_of_CURRENTS"},"data":[0,0,0,0.0202,0.0202,0.0163,0.0163,0.0088,0.0087,0,0,0,0,0,0,0,0,0,0,0,0.0214,0.0214,0.0203,0.0202,0.0163,0.0163,0.0088,0.0087,0,0,0,0,0,0,0,0,0,0,0,0.0214,0.0214,0.0214,0.0202,0.0163,0.0163,0.0088,0.0121,0,0,0,0,0,0,0,0,0,0,0.0161,0.018,0.0214,0.0214,0.0202,0.0163,0.0163,0.0123,0.0119,0.0102,0,0.0102,0,0.0098,0.0083,0.0082,0,0,0,0.0191,0.0183,0.0174,0.0214,0.0202,0.0163,0.0178,0.0121,0.0117,0.0097,0.0101,0.0098,0.0096,0.0082,0.0082,0.008,0.008,0,0,0.0193,0.0202,0.0177,0.0172,0.0199,0.0179,0.0177,0.0118,0.0116,0.01,0.0096,0.0095,0.0082,0.0081,0.0079,0.008,0,0,0,0.0207,0.0204,0.0196,0.0175,0.0172,0.0178,0.0175,0.0118,0.0116,0.0096,0.0094,0.0081,0.008,0.0079,0.008,0.0171,0,0,0,0.0208,0.0213,0.0198,0.0202,0.0174,0.0149,0.0176,0.012,0.0114,0.0095,0.0081,0.008,0.0078,0.0079,0.0167,0.0225,0,0,0,0.0215,0.0213,0.0211,0.0203,0.0191,0.015,0.0144,0.0118,0.0113,0.0082,0.008,0.0078,0.0079,0.0164,0.0219,0.0262,0,0,0,0.0221,0.0239,0.0212,0.0234,0.0192,0.0202,0.0144,0.0135,0.0115,0.0081,0.0078,0.008,0.0163,0.0215,0.0258,0.0317,0.0339,0,0,0.0253,0.0243,0.0258,0.0234,0.027,0.0206,0.024,0.0181,0.0127,0.0092,0.0092,0.0169,0.0218,0.0261,0.0384,0.0405,0,0,0,0.0275,0.029,0.0295,0.0307,0.0297,0.0303,0.0244,0.0218,0.0184,0.0122,0.0167,0.0196,0.022,0.0247,0.0263,0.0085,0.0085,0.0085,0.0085,0.0327,0.0332,0.0374,0.0381,0.0383,0.0365,0.0363,0.0317,0.0247,0.0246,0.0268,0.0364,0.0394,0.0407,0.0255,0.0256,0.0256,0.0256,0.0257,0.0398,0.043,0.0438,0.0477,0.0481,0.0498,0.0473,0.0436,0.0423,0.0349,0.0367,0.034,0.043,0.0264,0.0262,0.0261,0.0261,0.026,0.026,0.0438,0.046,0.0479,0.0542,0.0596,0.0595,0.0663,0.0612,0.0525,0.0542,0.0542,0.054,0.0424,0.054,0.0541,0.0541,0.0542,0.0542,0.0542,0.0474,0.05,0.0559,0.062,0.0677,0.0756,0.0773,0.0776,0.0734,0.0662,0.0662,0.0459,0.045,0.044,0.0549,0.0548,0.0547,0.0547,0.0546,0.0535,0.054,0.0636,0.0697,0.0843,0.0975,0.0976,0.0996,0.0954,0.0948,0.0721,0.0714,0.069,0.0676,0.0671,0.0834,0.0834,0.0834,0.0834,0.0572,0.0583,0.0714,0.0832,0.0978,0.1081,0.1217,0.1185,0.1046,0.0927,0.0923,0.0869,0.0856,0.0836,0.0818,0.0813,0.1014,0.1014,0.1014,0.062,0.0656,0.0756,0.0868,0.1042,0.1201,0.1336,0.1303,0.1078,0.1018,0.0919,0.0853,0.0759,0.0744,0.0695,0.0674,0.0657,0,0]}],[{"header":{"parameterUnit":"m.s-1","parameterCategory":2,"la1":30.2992,"la2":30.254,"lo1":-89.0895,"lo2":-89.0443,"dy":0.0025,"dx":0.0025,"nx":19,"ny":19,"refTime":"2026-03-08T21:00:00:Z","depth":"4","parameterNumber":2,"parameterNumberName":"U-component_of_CURRENTS"},"data":[0,0,0,0.1513,0.1516,0.1645,0.1645,0.1733,0.1733,0,0,0,0,0,0,0,0,0,0,0,0.1474,0.1475,0.1513,0.1516,0.1645,0.1645,0.1733,0.1733,0,0,0,0,0,0,0,0,0,0,0,0.1474,0.1475,0.1477,0.1516,0.1645,0.1645,0.1733,0.1654,0,0,0,0,0,0,0,0,0,0,0.1538,0.1519,0.1475,0.1477,0.1517,0.1645,0.1645,0.1651,0.1659,0.1653,0,0.1687,0,0.171,0.1738,0.1738,0,0,0,0.1513,0.1513,0.1543,0.1477,0.1518,0.1644,0.1586,0.1656,0.1665,0.1663,0.1689,0.1692,0.1712,0.1738,0.1739,0.1823,0.1823,0,0,0.1506,0.1498,0.1537,0.1549,0.1569,0.1582,0.159,0.1662,0.1679,0.1689,0.1695,0.1713,0.1739,0.1739,0.1822,0.1823,0,0,0,0.1487,0.1493,0.1523,0.1545,0.1574,0.1585,0.1595,0.1676,0.1686,0.1696,0.1714,0.1739,0.174,0.1822,0.1823,0.1864,0,0,0,0.1483,0.1483,0.152,0.1517,0.1573,0.1638,0.1607,0.1681,0.169,0.1714,0.1739,0.1741,0.1821,0.1822,0.1862,0.1884,0,0,0,0.1465,0.1481,0.15,0.1516,0.1573,0.1638,0.1652,0.1684,0.17,0.1738,0.1741,0.1821,0.1822,0.186,0.188,0.1944,0,0,0,0.1445,0.1475,0.15,0.1541,0.1572,0.1634,0.1652,0.1708,0.1742,0.1739,0.1821,0.1823,0.186,0.1878,0.1941,0.1705,0,0,0,0.1462,0.1477,0.1498,0.1523,0.1574,0.1615,0.1678,0.1732,0.1754,0.179,0.1793,0.1863,0.188,0.1943,0.1767,0,0,0,0,0.1488,0.1506,0.1526,0.157,0.1615,0.168,0.1729,0.1759,0.1829,0.1781,0.1872,0.1882,0.192,0.1775,0.1828,0.1827,0.1827,0.1827,0.1827,0.1487,0.1513,0.1547,0.1592,0.1641,0.1725,0.1783,0.1836,0.1844,0.1888,0.1923,0.2007,0.1854,0.1928,0.1928,0.1928,0.1929,0.1929,0.1929,0.149,0.1497,0.1556,0.1603,0.1675,0.1745,0.1848,0.1888,0.1988,0.1966,0.2002,0.1835,0.1933,0.1932,0.1932,0.1931,0.1931,0.193,0.193,0.146,0.1464,0.1517,0.1588,0.1679,0.1778,0.1874,0.1972,0.2036,0.2083,0.1956,0.2051,0.2042,0.212,0.212,0.212,0.2121,0.2121,0.2121,0.1394,0.144,0.1481,0.1574,0.1631,0.1746,0.1914,0.1977,0.2075,0.1988,0.2117,0.2072,0.2066,0.2054,0.2127,0.2126,0.2125,0.2125,0.2124,0.1328,0.1371,0.1415,0.147,0.1584,0.1643,0.1832,0.1906,0.1965,0.1951,0.1937,0.1944,0.1915,0.1913,0.1894,0.1923,0.192,0.1918,0,0.1275,0.1301,0.1346,0.1394,0.1445,0.1568,0.1587,0.1693,0.179,0.1726,0.1969,0.195,0.1954,0.1917,0.1911,0.1886,0,0,0,0.1229,0.1255,0.1259,0.1324,0.1362,0.1439,0.1581,0.1566,0.1766,0.1762,0.1849,0.1867,0.2025,0.2145,0.2119,0.2111,0.2091,0,0]},{"header":{"parameterUnit":"m.s-1","parameterCategory":2,"la1":30.2992,"la2":30.254,"lo1":-89.0895,"lo2":-89.0443,"dy":0.0025,"dx":0.0025,"nx":19,"ny":19,"refTime":"2026-03-08T21:00:00:Z","depth":"4","parameterNumber":3,"parameterNumberName":"V-component_of_CURRENTS"},"data":[0,0,0,0.0204,0.0204,0.0179,0.0179,0.0133,0.0133,0,0,0,0,0,0,0,0,0,0,0,0.0213,0.0213,0.0204,0.0204,0.0179,0.0179,0.0133,0.0133,0,0,0,0,0,0,0,0,0,0,0,0.0213,0.0213,0.0213,0.0204,0.0179,0.0179,0.0133,0.0153,0,0,0,0,0,0,0,0,0,0,0.0178,0.0192,0.0213,0.0213,0.0204,0.0179,0.0179,0.0154,0.0152,0.0143,0,0.0147,0,0.0143,0.013,0.013,0,0,0,0.0195,0.0194,0.0189,0.0213,0.0204,0.018,0.0188,0.0153,0.0151,0.014,0.0146,0.0144,0.0142,0.013,0.013,0.015,0.015,0,0,0.0196,0.0204,0.0191,0.0188,0.0206,0.0189,0.0187,0.0152,0.0151,0.0146,0.0143,0.0141,0.013,0.013,0.0149,0.015,0,0,0,0.0206,0.0205,0.0201,0.0189,0.0188,0.0188,0.0186,0.0153,0.0152,0.0143,0.0141,0.013,0.0129,0.0149,0.015,0.0218,0,0,0,0.0207,0.0212,0.0202,0.0206,0.0189,0.0173,0.0189,0.0155,0.0151,0.0141,0.013,0.0129,0.0148,0.0149,0.0215,0.0255,0,0,0,0.0213,0.0212,0.0213,0.0206,0.02,0.0173,0.017,0.0154,0.015,0.013,0.0129,0.0148,0.0149,0.0212,0.0249,0.0266,0,0,0,0.0216,0.0232,0.0213,0.0232,0.02,0.0216,0.017,0.017,0.0159,0.0129,0.0148,0.015,0.0212,0.0246,0.0263,0.027,0,0,0,0.024,0.0235,0.0248,0.0231,0.0265,0.0218,0.025,0.021,0.0173,0.0156,0.0156,0.0216,0.0249,0.0265,0.034,0,0,0,0,0.0258,0.0271,0.0277,0.0291,0.029,0.0299,0.026,0.0244,0.0227,0.0174,0.0221,0.024,0.0248,0.0244,0.0155,0.0155,0.0155,0.0155,0.0155,0.0295,0.0303,0.0339,0.035,0.0359,0.0354,0.0353,0.0325,0.028,0.0285,0.0299,0.0366,0.0366,0.0297,0.0298,0.0298,0.0298,0.0298,0.0299,0.0345,0.0371,0.0388,0.0425,0.0437,0.046,0.0444,0.0418,0.041,0.0366,0.0369,0.0322,0.0305,0.0304,0.0303,0.0302,0.0302,0.0301,0.0301,0.037,0.0388,0.0412,0.0473,0.0527,0.0537,0.0584,0.0552,0.0484,0.0491,0.0463,0.0409,0.0398,0.0486,0.0486,0.0487,0.0487,0.0487,0.0487,0.0386,0.0415,0.0468,0.0531,0.0586,0.0652,0.067,0.066,0.0599,0.0552,0.0512,0.0428,0.0422,0.0409,0.0491,0.0491,0.049,0.049,0.0489,0.0418,0.0433,0.0514,0.0573,0.07,0.0749,0.0773,0.0733,0.0714,0.0664,0.0568,0.0563,0.0535,0.0526,0.0514,0.0631,0.0632,0.0632,0,0.0437,0.045,0.0561,0.0661,0.0765,0.081,0.082,0.0799,0.0703,0.0687,0.0692,0.0585,0.058,0.0548,0.054,0.0528,0,0,0,0.0463,0.0495,0.0574,0.0674,0.0793,0.0817,0.0824,0.0795,0.0723,0.0706,0.0642,0.064,0.059,0.0504,0.0448,0.044,0.0415,0,0]}]]